User: anonymous   Login
Location: Bougoura
(13.1861°N, 5.0773°W)
Time: 10:15:45
(UTC+00:00)
Language:

Meteor 2-11 Rocket - Orbit

View from above orbital plane
View from above orbital plane
View from above satellite
View from above satellite

Ground track
Ground track

The orbit data is extracted from the following two-line orbital elements,

1 15100U 84072B   20338.15640609  .00000035  00000-0  17760-4 0  9998
2 15100  82.5316 215.5745 0012767  39.9686 320.2412 13.84445642839934
Epoch (UTC): 03 December 2020 03:45:13
Eccentricity: 0.0012767
inclination: 82.5316°
perigee height: 939 km
apogee height: 957 km
right ascension of ascending node: 215.5745°
argument of perigee: 39.9686°
revolutions per day: 13.84445642
mean anomaly at epoch: 320.2412°
orbit number at epoch: 83993

The dashed part of the orbit path shows where the satellite is in the earth's shadow,  

DLR